Find Starlink 11235

NORAD ID: 60726 Int'l Des: 2024-152 Owner: SPXS Country: US Constellation: starlink operational
又名: STARLINK-11235 [DTC] celestrak
LEOCIRCULAR

当前视图

正在加载3D地球...

About Starlink 11235

Starlink 11235 (NORAD 60726) is a starlink constellation satellite (v2 mini d2c) launched Aug 28, 2024 by SPXS of US. It operates in LEO, CIRCULAR orbit with a mass of 960.00 kg.

即将过境

Passes for default location (London). Set your location on the main map for personalized predictions.

高度历史

Loading altitude history...

两行轨道根数

1 60726U 24152G 26237.08399720 -.00001060 00000-0 -38993-5 0 9999
2 60726 53.1599 6.1073 0000695 99.7383 260.3714 15.69704557115415
Epoch: Aug 25, 2026 • Age: 11 hours

当前状态

高度 359.9 km
远地点 / 近地点 N/A
速度 7.70 km/s
星下点 13.38°N, 151.44°W
发射日期 Aug 28, 2024
运行时间 1.9 years
类型 internet

技术详情

分类 Payload
质量 960.00 kg
干质量 910.00 kg
总质量 960.00 kg
长度 0.30 m
直径 4.10 m
跨度 29.00 m
形状 Box + pan
制造商 SPXS
平台类型 Starlink V2MD
阶段状态 In Orbit
所有者/国家 SPXS/US

Most Searched